Location: Ravensburg
(48.5621°N, 13.4088°E)
Time: 08:44:17
(UTC+01:00)

ISS - Pass Details

Date: 12 November 2017
Orbit: 402 x 407 km, 51.6° (Epoch: 24 November)

Event Time Altitude Azimuth Distance (km) Brightness Sun altitude
Exits shadow 05:52:30 24° 290° (WNW) 887 -2.7 -12.9°
Maximum altitude 05:54:20 86° 204° (SSW) 408 -3.9 -12.6°
Drops below altitude 10° 05:57:36 10° 114° (ESE) 1,453 0.4 -12.1°
Sets 05:59:40 0° 114° (ESE) 2,310 1.9 -11.7°
